[[{"header":{"parameterUnit":"m.s-1","parameterCategory":1,"la1":30.2991,"la2":30.254,"lo1":-89.0895,"lo2":-89.0444,"dy":0.0017,"dx":0.0017,"nx":28,"ny":28,"refTime":"2024-08-17T09:00:00:Z","depth":0,"parameterNumber":2,"parameterNumberName":"U-component_of_WINDS"},"data":[0,0,0,0,0,0,0,0,0,0,0,0,0,0,0,0,0,0,0,0,0,0,0,0,0,0,0,0,0,0,0,0,0,0,0,0,0,0,0,0,0,0,0,0,0,0,0,0,0,0,0,0,0,0,0,0,0,0,-0.2901,-0.2901,0,-0.2925,-0.2925,-0.2925,-0.2915,-0.2914,-0.2913,-0.2913,-0.2939,-0.294,-0.2941,0,0,0,0,0,0,0,0,0,0,0,0,0,-0.2847,-0.2848,-0.2901,-0.2901,-0.2901,-0.2925,-0.2925,-0.2925,-0.2915,-0.2914,-0.2913,-0.2913,-0.2938,-0.294,-0.2941,0,0,0,0,0,0,0,0,0,0,0,0,0,-0.2871,-0.2849,-0.29,-0.2899,-0.2899,-0.2924,-0.2925,-0.2925,-0.2915,-0.2914,-0.2913,-0.2912,-0.2938,-0.2939,-0.2941,-0.297,0,0,-0.2947,-0.2948,0,0,0,0,0,0,0,0,-0.287,-0.2873,-0.2899,-0.2899,-0.2899,-0.2916,-0.2916,-0.294,-0.2915,-0.2909,-0.2913,-0.2912,-0.2932,-0.2934,-0.294,-0.2972,-0.2973,-0.2947,-0.2948,-0.2949,-0.295,0,0,0,0,0,0,0,-0.2868,-0.2872,-0.291,-0.2899,-0.2899,-0.2897,-0.29,-0.292,-0.2925,-0.2909,-0.2909,-0.2912,-0.2932,-0.2939,-0.2941,-0.2973,-0.2947,-0.2949,-0.295,-0.2951,-0.3031,-0.3032,0,0,0,0,0,0,-0.2866,-0.287,-0.2909,-0.2911,-0.2882,-0.2899,-0.2902,-0.2911,-0.2925,-0.2926,-0.2912,-0.2911,-0.2936,-0.2939,-0.2942,-0.2978,-0.2949,-0.2951,-0.2952,-0.303,-0.3031,-0.3032,0,0,0,0,0,0,-0.2865,-0.287,-0.2908,-0.289,-0.2895,-0.2901,-0.2912,-0.2912,-0.2919,-0.2927,-0.2928,-0.2918,-0.2935,-0.2939,-0.2964,-0.2978,-0.2952,-0.2953,-0.3029,-0.303,-0.3032,-0.3049,0,0,0,0,0,0,-0.2864,-0.2869,-0.288,-0.2891,-0.2896,-0.2929,-0.2913,-0.2913,-0.2922,-0.2921,-0.2933,-0.2934,-0.2935,-0.2961,-0.2965,-0.2981,-0.2955,-0.3027,-0.3029,-0.3031,-0.3047,-0.3051,-0.3054,0,0,0,0,0,-0.2862,-0.2884,-0.2881,-0.2885,-0.291,-0.293,-0.2933,-0.2933,-0.2923,-0.2935,-0.294,-0.2934,-0.2976,-0.2964,-0.2969,-0.2984,-0.3026,-0.3029,-0.3031,-0.3046,-0.305,-0.3054,0,0,0,0,0,0,-0.2875,-0.2885,-0.2882,-0.2908,-0.2918,-0.2928,-0.2942,-0.2938,-0.2952,-0.295,-0.295,-0.2953,-0.2978,-0.2983,-0.2969,-0.3014,-0.3,-0.3003,-0.3009,-0.3014,-0.3017,-0.3016,-0.2956,0,0,0,0,0,-0.2881,-0.2896,-0.2905,-0.2927,-0.2932,-0.2936,-0.2945,-0.2945,-0.2955,-0.296,-0.2967,-0.2978,-0.2994,-0.3004,-0.3019,-0.3048,-0.3051,-0.3062,-0.3065,-0.3068,-0.3071,-0.3088,-0.3093,-0.304,-0.304,-0.304,0,0,-0.2894,-0.2901,-0.2911,-0.293,-0.2938,-0.2954,-0.294,-0.2958,-0.2971,-0.2963,-0.2986,-0.2992,-0.3004,-0.3031,-0.3044,-0.3037,-0.3087,-0.3071,-0.3073,-0.3075,-0.3091,-0.3096,-0.3101,-0.3041,-0.3041,-0.3041,0,0,-0.2925,-0.2932,-0.2952,-0.296,-0.2972,-0.2975,-0.298,-0.299,-0.2994,-0.3017,-0.3012,-0.3027,-0.3054,-0.3064,-0.3072,-0.3108,-0.3103,-0.3113,-0.3132,-0.3148,-0.3152,-0.3156,-0.317,-0.3175,-0.3116,-0.3116,-0.3116,0,-0.2939,-0.2963,-0.2963,-0.2981,-0.299,-0.2984,-0.3005,-0.3013,-0.3029,-0.3036,-0.3028,-0.3062,-0.307,-0.31,-0.3109,-0.3116,-0.3122,-0.3112,-0.3152,-0.3155,-0.3159,-0.3172,-0.3177,-0.3117,-0.3117,-0.3117,-0.3117,0,-0.2981,-0.2998,-0.3013,-0.3029,-0.3039,-0.3059,-0.3062,-0.3073,-0.3072,-0.3075,-0.31,-0.3109,-0.3126,-0.3133,-0.3132,-0.3164,-0.3159,-0.3151,-0.3137,-0.3165,-0.3178,-0.3183,-0.3119,-0.3118,-0.3118,-0.3118,0,0,-0.3021,-0.3037,-0.3043,-0.305,-0.3063,-0.3077,-0.3096,-0.3113,-0.3123,-0.3135,-0.3152,-0.3175,-0.3169,-0.3178,-0.3178,-0.3192,-0.3222,-0.3183,-0.3184,-0.3191,-0.3258,-0.3264,-0.327,-0.3219,-0.322,-0.322,-0.3257,0,-0.3054,-0.3088,-0.3089,-0.312,-0.3137,-0.3131,-0.3149,-0.3159,-0.3163,-0.3178,-0.3183,-0.32,-0.3189,-0.3195,-0.3209,-0.3215,-0.3235,-0.3212,-0.3235,-0.3236,-0.3233,-0.3276,-0.3283,-0.3317,-0.3262,-0.3263,-0.3263,0,-0.3097,-0.3111,-0.3144,-0.3156,-0.3163,-0.3178,-0.3194,-0.3208,-0.322,-0.3222,-0.3233,-0.3231,-0.3252,-0.3237,-0.3266,-0.3251,-0.326,-0.3265,-0.3266,-0.3269,-0.3252,-0.3281,-0.3328,-0.3334,-0.3271,-0.327,-0.327,0,-0.3125,-0.3151,-0.3174,-0.3181,-0.3195,-0.3206,-0.3213,-0.3224,-0.3234,-0.3248,-0.3255,-0.3271,-0.328,-0.3293,-0.3296,-0.3285,-0.3326,-0.3311,-0.3329,-0.3329,-0.3339,-0.3338,-0.3389,-0.3344,-0.3343,-0.3343,-0.3343,0,-0.3162,-0.3183,-0.3187,-0.3202,-0.3225,-0.3226,-0.3249,-0.3255,-0.3265,-0.3281,-0.3277,-0.3293,-0.3295,-0.3311,-0.3313,-0.3338,-0.3342,-0.3345,-0.3346,-0.3346,-0.3346,-0.3352,-0.335,-0.3345,-0.3344,-0.3344,-0.3344,0,-0.3197,-0.32,-0.3226,-0.3237,-0.324,-0.3257,-0.3267,-0.3282,-0.3286,-0.3306,-0.3311,-0.3318,-0.3337,-0.334,-0.3363,-0.3364,-0.3394,-0.3392,-0.339,-0.339,-0.3409,-0.3407,-0.3466,-0.3474,-0.3423,-0.3423,-0.3424,0,-0.3221,-0.3237,-0.325,-0.326,-0.3267,-0.3284,-0.3295,-0.3296,-0.3307,-0.3323,-0.3336,-0.3354,-0.3369,-0.34,-0.3407,-0.3424,-0.3423,-0.3442,-0.3425,-0.3426,-0.3424,-0.3424,-0.3426,-0.3446,-0.3446,-0.3447,-0.3447,0,-0.3264,-0.3265,-0.328,-0.3296,-0.3309,-0.3321,-0.3333,-0.3342,-0.3345,-0.3358,-0.3378,-0.3389,-0.3412,-0.3431,-0.3449,-0.3456,-0.3453,-0.3452,-0.3458,-0.3458,-0.3457,-0.3459,-0.34,-0.3451,-0.3451,-0.345,-0.345,-0.345,-0.3295,-0.3309,-0.3321,-0.3338,-0.3347,-0.3359,-0.3373,-0.3379,-0.3395,-0.3413,-0.3413,-0.3435,-0.3447,-0.347,-0.3479,-0.3496,-0.349,-0.3497,-0.35,-0.3502,-0.3504,-0.3454,-0.3499,-0.3499,-0.3499,-0.3499,-0.3499,0,-0.3338,-0.3345,-0.3361,-0.3378,-0.3392,-0.3387,-0.34,-0.3412,-0.3431,-0.3443,-0.3458,-0.348,-0.3499,-0.3507,-0.3526,-0.3538,-0.3537,-0.3543,-0.3542,-0.3544,-0.3508,-0.3502,-0.3543,-0.3543,-0.3543,-0.3543,-0.3543,-0.3543,-0.3362,-0.3387,-0.3389,-0.3418,-0.3425,-0.3446,-0.3454,-0.3465,-0.3475,-0.35,-0.3515,-0.3521,-0.3531,-0.3551,-0.3568,-0.357,-0.3577,-0.3584,-0.3586,-0.3551,-0.3547,-0.3542,-0.3537,-0.3586,-0.3586,-0.3621,-0.3621,-0.3622]},{"header":{"parameterUnit":"m.s-1","parameterCategory":1,"la1":30.2991,"la2":30.254,"lo1":-89.0895,"lo2":-89.0444,"dy":0.0017,"dx":0.0017,"nx":28,"ny":28,"refTime":"2024-08-17T09:00:00:Z","depth":0,"parameterNumber":3,"parameterNumberName":"V-component_of_WINDS"},"data":[0,0,0,0,0,0,0,0,0,0,0,0,0,0,0,0,0,0,0,0,0,0,0,0,0,0,0,0,0,0,0,0,0,0,0,0,0,0,0,0,0,0,0,0,0,0,0,0,0,0,0,0,0,0,0,0,0,0,3.2505,3.2506,0,3.2532,3.2532,3.2532,3.2471,3.2469,3.2467,3.2465,3.249,3.2492,3.2495,0,0,0,0,0,0,0,0,0,0,0,0,0,3.2398,3.24,3.2505,3.2506,3.2506,3.2532,3.2532,3.2533,3.2471,3.2469,3.2466,3.2464,3.2489,3.2492,3.2495,0,0,0,0,0,0,0,0,0,0,0,0,0,3.2437,3.2401,3.2505,3.2478,3.2476,3.2532,3.2532,3.2533,3.2472,3.2469,3.2466,3.2463,3.2488,3.2491,3.2495,3.2577,0,0,3.2507,3.2508,0,0,0,0,0,0,0,0,3.2435,3.2441,3.2482,3.248,3.2478,3.2495,3.2503,3.2547,3.2472,3.2473,3.2465,3.2461,3.2494,3.2497,3.2508,3.2578,3.2579,3.2507,3.2509,3.2511,3.2512,0,0,0,0,0,0,0,3.2432,3.2439,3.2516,3.2483,3.248,3.2464,3.2466,3.2511,3.25,3.2473,3.2469,3.2473,3.2492,3.2505,3.2508,3.258,3.2507,3.251,3.2512,3.2514,3.2716,3.2719,0,0,0,0,0,0,3.2433,3.2437,3.2515,3.2516,3.2449,3.2468,3.2471,3.2492,3.2499,3.2497,3.2475,3.247,3.25,3.2504,3.2509,3.2604,3.2511,3.2514,3.2516,3.2713,3.2717,3.2721,0,0,0,0,0,0,3.2431,3.2441,3.2514,3.2476,3.2484,3.2473,3.2498,3.2495,3.2507,3.2501,3.2498,3.249,3.2498,3.2504,3.256,3.2604,3.2516,3.2519,3.271,3.2715,3.2719,3.2795,0,0,0,0,0,0,3.2428,3.244,3.2472,3.2477,3.2486,3.2566,3.2501,3.2497,3.2514,3.2507,3.2514,3.2513,3.2496,3.2555,3.2564,3.2607,3.2522,3.2706,3.2712,3.2717,3.2788,3.2802,3.2813,0,0,0,0,0,3.2425,3.2492,3.2474,3.2484,3.2526,3.2569,3.2574,3.2554,3.2518,3.2549,3.2545,3.2512,3.2598,3.2561,3.2571,3.2616,3.2703,3.271,3.2717,3.2783,3.2799,3.2813,0,0,0,0,0,0,3.2492,3.2492,3.2472,3.2544,3.2557,3.2558,3.2597,3.2572,3.2594,3.2587,3.256,3.2562,3.2624,3.2626,3.2585,3.2695,3.2644,3.2653,3.2691,3.2706,3.2718,3.2716,3.2525,0,0,0,0,0,3.2515,3.2551,3.2549,3.2612,3.262,3.2608,3.2625,3.2609,3.2621,3.2626,3.2626,3.2638,3.2667,3.2687,3.2714,3.2789,3.2788,3.2824,3.2837,3.2847,3.2855,3.2893,3.2908,3.2744,3.2744,3.2744,0,0,3.2563,3.2568,3.2592,3.2626,3.2634,3.267,3.2612,3.2654,3.268,3.2632,3.2685,3.2686,3.2697,3.2763,3.2792,3.2767,3.29,3.2856,3.2864,3.2866,3.2901,3.2917,3.2931,3.2749,3.2748,3.2747,0,0,3.2669,3.2677,3.273,3.2739,3.2752,3.2744,3.2756,3.2762,3.276,3.2814,3.2778,3.2809,3.286,3.287,3.2881,3.2991,3.2961,3.3,3.3063,3.3101,3.3114,3.3125,3.3162,3.3176,3.3008,3.3009,3.3009,0,3.2727,3.2781,3.276,3.2803,3.2818,3.2777,3.283,3.284,3.2861,3.2872,3.2843,3.2906,3.2912,3.2978,3.3005,3.3016,3.3029,3.2998,3.3114,3.3125,3.3135,3.317,3.3184,3.3013,3.3013,3.3012,3.3012,0,3.285,3.2888,3.2929,3.2951,3.2971,3.3019,3.3003,3.3026,3.3008,3.3002,3.3056,3.3061,3.3087,3.3102,3.3085,3.3166,3.315,3.3118,3.3066,3.3156,3.3188,3.3201,3.3019,3.3018,3.3017,3.3015,0,0,3.2998,3.3008,3.3023,3.3031,3.3043,3.3072,3.3117,3.3144,3.3163,3.3179,3.3215,3.326,3.323,3.3243,3.3227,3.326,3.3344,3.3224,3.3223,3.3244,3.3432,3.3454,3.347,3.3325,3.3328,3.333,3.343,0,3.3101,3.3179,3.3161,3.3238,3.3272,3.3234,3.3273,3.3284,3.328,3.3307,3.3302,3.3333,3.3293,3.33,3.3332,3.3327,3.3381,3.332,3.3357,3.3358,3.3353,3.3487,3.3511,3.3606,3.3443,3.3445,3.3446,0,3.3231,3.3253,3.3333,3.3338,3.3352,3.3388,3.341,3.3437,3.3448,3.3442,3.3457,3.3434,3.3477,3.3427,3.3486,3.3445,3.3459,3.3459,3.3462,3.3463,3.3407,3.349,3.3636,3.3649,3.3467,3.3465,3.3464,0,3.3329,3.3378,3.3432,3.3441,3.3449,3.3474,3.3479,3.3487,3.3504,3.3523,3.3533,3.3558,3.357,3.3589,3.3573,3.3538,3.3633,3.3582,3.3628,3.3629,3.3649,3.3647,3.3796,3.3661,3.3661,3.3661,3.3661,0,3.3444,3.3495,3.3475,3.3508,3.3563,3.3542,3.3596,3.3596,3.3604,3.3635,3.3604,3.3634,3.3611,3.3639,3.3626,3.3676,3.3682,3.3678,3.3673,3.368,3.368,3.3687,3.3679,3.3665,3.3664,3.3663,3.3662,0,3.3562,3.3551,3.3607,3.361,3.3612,3.3652,3.3654,3.3684,3.3677,3.3718,3.3726,3.3715,3.3746,3.3732,3.3765,3.3756,3.3819,3.3807,3.3816,3.3812,3.3858,3.3854,3.4016,3.4035,3.389,3.3891,3.3892,0,3.3635,3.3673,3.368,3.3699,3.3706,3.3737,3.3754,3.3735,3.3753,3.3769,3.3796,3.3825,3.3846,3.3897,3.3892,3.3916,3.3903,3.3959,3.3907,3.3911,3.3902,3.3899,3.3902,3.3969,3.397,3.3972,3.3973,0,3.3767,3.3759,3.3785,3.381,3.3831,3.3849,3.3864,3.3881,3.3862,3.3885,3.3916,3.3933,3.3966,3.3994,3.4015,3.4018,3.3992,3.399,3.4001,3.4007,3.4009,3.4007,3.3842,3.3985,3.3984,3.3983,3.3982,3.3982,3.3863,3.3894,3.3904,3.3933,3.3943,3.3958,3.3986,3.3983,3.4009,3.4035,3.4022,3.4058,3.4067,3.4093,3.41,3.4127,3.4105,3.4123,3.4127,3.4131,3.4136,3.4007,3.4131,3.4131,3.413,3.413,3.413,0,3.3991,3.3995,3.4023,3.4045,3.4068,3.4043,3.4058,3.4079,3.4111,3.4122,3.4144,3.418,3.4207,3.4204,3.4228,3.4251,3.4239,3.4257,3.4255,3.4255,3.4155,3.4142,3.4266,3.4266,3.4266,3.4266,3.4266,3.4266,3.406,3.4111,3.4105,3.4159,3.4163,3.4199,3.421,3.4223,3.4231,3.4272,3.4295,3.4293,3.4298,3.4323,3.4346,3.4344,3.4354,3.4376,3.437,3.4276,3.4263,3.425,3.4237,3.4379,3.4379,3.4468,3.4469,3.4469]}]]